Location: Unspecified
(50.1700°N, 6.8600°E)
Time: 09:48:20
(UTC+00:00)

Cosmos 2151 - Pass Details

Date: 24 January 2019
Orbit: 581 x 602 km, 82.5° (Epoch: 16 February)

Event Time Altitude Azimuth Distance (km) Brightness Sun altitude
Rises 06:25:01 0° 344° (NNW) 2,819 6.1 -8.5°
Reaches altitude 10° 06:27:18 10° 337° (NNW) 1,912 5.2 -8.1°
Maximum altitude 06:31:15 41° 267° (W) 854 3.4 -7.5°
Drops below altitude 10° 06:35:11 10° 197° (SSW) 1,895 5.6 -6.9°
Sets 06:37:27 0° 191° (S) 2,789 6.6 -6.6°
